Погода в Люксембурге

Россия / Республика Дагестан     43°39′36″N   46°44′31″E
темп.,
°C
ветер,
м/с
пор.,
м/с
влажн.,
%
обл.,
%
осадки,
мм/ч
давл.,
гПа
погр.,
м
2 декабря, чт
чт200:00+5юз2373100 0.2 1013567
03:00+5св1172100 0.2 101235
06:00+5ююв3566100 0.0 101398
09:00+7ссз4458100 0.0 1016150
12:00+9ссз565874 0.0 1019852
15:00+9зюз445043 0.0 10211221
18:00+6юз47765 0.0 1023154
21:00+5ююз22740 0.0 102423
3 декабря, пт
пт300:00+4юв33741 0.0 102437
03:00+4вюв48820 0.0 1023134
06:00+4в412910 0.0 1022242
09:00+8вюв814770 0.0 1022685
12:00+11вюв912605 0.0 1020822
15:00+10вюв7106384 0.0 1019643
18:00+8вюв51078100 0.0 1019301
21:00+6юв23885 0.0 101942
4 декабря, сб
сб400:00+5юз226861 0.0 101913
03:00+4зюз336952 0.0 102026
06:00+3з338357 0.0 102033
09:00+5з24797 0.0 1021133
12:00+10сз23595 0.0 1018419
15:00+10сз34545 0.0 1018427
18:00+7юз11696 0.0 101710
21:00+6ююв33695 0.0 101724
5 декабря, вс
вс500:00+5вюв33808 0.0 101538
03:00+5вюв228493 0.0 101519
06:00+5в228384 0.0 101511
09:00+7в2477100 0.0 1015111
12:00+11в2355100 0.0 1014430
15:00+11в1159100 0.0 101412
18:00+8вюв1174100 0.0 101610
21:00+8з1178100 0.0 101811
6 декабря, пн
пн600:00+7з2285100 0.0 101815
03:00+6з1187100 0.0 101910
06:00+6зюз118786 0.0 102010
09:00+7з11755 0.0 102258
12:00+11вюв22645 0.0 1022501
15:00+12вюв34622 0.0 1022847
18:00+8вюв36850 0.0 1024106
21:00+7в36935 0.0 1025120